COSMOS 2433 (720)

Last updated on Aug. 10, 2020, 5:34 a.m. UTC

1 32275U 07052A   20222.91103591 -.00000042  00000-0  10000-3 0  9991
2 32275  65.9946  27.1406 0001795 188.6744 170.7564  2.13104240 99544
UTC
Height (km)
Latitude
Longitude
Inclination
Orbital Period
UTC large
Height (km)
Speed (km/s)
/
Latitude / Longitude
Inclination (degrees)
Orbital Period (minutes)
Azimuth
Elevation
Range (km)
Doppler Factor
iOS Compass Heading
iOS Angle

Next 30 passes for location: Hong Kong

Rise time Rise Azimuth (degrees) Set time Set Azimuth (degrees) Duration Max altitude (degrees)

No matching passes for this satellites